GW1347 Weather Reports


Display with metric or nautical units.
time (UTC)temp
F
wind
direction
speed
MPH
gust
MPH
rain 1hr
in
rain 24hr
in
rain mn
in
humidity
%
barometer
mb
20260504234431 76 139 7.0 18.0 0.00 0.00 0.00 43 1004.6
20260504233402 76 201 8.0 15.0 0.00 0.00 0.00 44 1004.7
20260504232329 76 227 8.0 16.0 0.00 0.00 0.00 43 1004.9
20260504231312 77 226 9.0 18.0 0.00 0.00 0.00 42 1005.0
20260504230316 76 219 10.0 19.0 0.00 0.00 0.00 42 1005.4
20260504225338 77 242 11.0 22.0 0.00 0.00 0.00 41 1005.6
20260504223129 77 226 10.0 20.0 0.00 0.00 0.00 41 1005.7
20260504222136 77 179 9.0 20.0 0.00 0.00 0.00 40 1005.8
20260504221114 77 229 11.0 22.0 0.00 0.00 0.00 40 1005.9
20260504220120 77 233 8.0 22.0 0.00 0.00 0.00 39 1005.8
20260504215142 77 243 6.0 15.0 0.00 0.00 0.00 39 1005.9
20260504214153 77 226 8.0 29.0 0.00 0.00 0.00 38 1006.0
20260504213148 77 226 11.0 29.0 0.00 0.00 0.00 37 1006.2
20260504212149 78 217 12.0 27.0 0.00 0.00 0.00 38 1006.2
20260504211151 78 240 10.0 24.0 0.00 0.00 0.00 37 1006.0
20260504210203 79 234 11.0 24.0 0.00 0.00 0.00 38 1006.0
20260504205133 78 182 8.0 19.0 0.00 0.00 0.00 39 1006.2
20260504204143 79 181 9.0 19.0 0.00 0.00 0.00 40 1006.1
20260504203148 78 207 3.0 11.0 0.00 0.00 0.00 44 1006.3
20260504202212 78 243 3.0 9.0 0.00 0.00 0.00 45 1006.6
20260504201140 78 151 2.0 8.0 0.00 0.00 0.00 44 1006.7
20260504195055 79 349 3.0 9.0 0.00 0.00 0.00 42 1007.1
20260504192909 77 195 1.0 9.0 0.00 0.00 0.00 46 1007.4
20260504191851 76 247 3.0 8.0 0.00 0.00 0.00 49 1007.5
20260504190817 74 235 3.0 8.0 0.00 0.00 0.00 51 1007.7
20260504185826 72 238 2.0 6.0 0.00 0.00 0.00 55 1007.9
20260504184818 71 244 3.0 11.0 0.00 0.00 0.00 56 1008.1
20260504183811 71 257 4.0 12.0 0.00 0.00 0.00 56 1008.4
20260504180518 68 262 2.0 4.0 0.00 0.00 0.00 64 1008.6
20260504175540 68 229 0.0 3.0 0.00 0.00 0.00 63 1008.5
20260504174525 68 297 1.0 9.0 0.00 0.00 0.00 64 1008.5
20260504173529 69 234 4.0 11.0 0.00 0.00 0.00 60 1008.6
20260504172455 69 235 5.0 16.0 0.00 0.00 0.00 59 1008.1
20260504171512 69 271 6.0 16.0 0.00 0.00 0.00 58 1008.3
20260504170453 69 248 6.0 14.0 0.00 0.00 0.00 57 1008.4
20260504160328 68 169 9.0 19.0 0.00 0.00 0.00 58 1008.3
20260504150312 66 248 1.0 5.0 0.00 0.00 0.00 65 1008.5
20260504141115 64 250 5.0 11.0 0.00 0.00 0.00 66 1008.8
20260504081530 55 167 1.0 4.0 0.00 0.00 0.00 63 1009.8
20260504070340 56 124 2.0 6.0 0.00 0.00 0.00 60 1010.4
20260504060231 56 167 3.0 7.0 0.00 0.00 0.00 59 1011.1
20260504050104 57 240 3.0 8.0 0.00 0.00 0.00 58 1011.6
20260504045035 57 142 4.0 9.0 0.00 0.00 0.00 58 1011.6
20260504044045 57 227 4.0 9.0 0.00 0.00 0.00 58 1011.6
20260504041906 57 246 3.0 8.0 0.00 0.00 0.00 57 1011.7
20260504040903 57 245 3.0 6.0 0.00 0.00 0.00 57 1011.8
20260504035838 58 231 3.0 6.0 0.00 0.00 0.00 56 1011.9
20260504034830 58 213 3.0 6.0 0.00 0.00 0.00 56 1012.0
20260504033822 58 157 3.0 6.0 0.00 0.00 0.00 55 1012.1
20260504032801 59 181 3.0 8.0 0.00 0.00 0.00 54 1012.2
20260504031738 59 148 3.0 6.0 0.00 0.00 0.00 54 1012.3
20260504030728 59 236 4.0 8.0 0.00 0.00 0.00 53 1012.3
20260504025730 59 139 4.0 14.0 0.00 0.00 0.00 53 1012.3
20260504024710 59 167 4.0 14.0 0.00 0.00 0.00 53 1012.3
20260504023715 60 151 4.0 10.0 0.00 0.00 0.00 52 1012.4
20260504022703 60 243 4.0 8.0 0.00 0.00 0.00 51 1012.3
20260504021639 60 219 4.0 9.0 0.00 0.00 0.00 51 1012.4
20260504020613 60 257 5.0 9.0 0.00 0.00 0.00 51 1012.2
20260504014459 61 252 4.0 10.0 0.00 0.00 0.00 49 1012.3
20260504013433 61 334 5.0 13.0 0.00 0.00 0.00 48 1012.2
20260504012415 61 207 6.0 14.0 0.00 0.00 0.00 48 1012.1
20260504011402 61 217 6.0 14.0 0.00 0.00 0.00 48 1011.9
20260504005215 62 129 8.0 18.0 0.00 0.00 0.00 47 1011.7
20260504001908 62 218 7.0 17.0 0.00 0.00 0.00 46 1011.8
20260504000858 62 255 6.0 16.0 0.00 0.00 0.00 45 1011.8
20260503235913 62 219 7.0 16.0 0.00 0.00 0.00 45 1012.6
20260503234905 62 212 9.0 15.0 0.00 0.00 0.00 44 1012.8